Showing default

METEOSAT 11 (MSG 4), 40732

Orbit data source: Space-Track

METEOSAT 11 (MSG 4), 40732 is a payload satellite owned by EUMETSAT (DE) in GEO that was launched on Wed, 15 Jul 2015 UTC via an ARIANE 5ECA launch vehicle from the French Guiana (FRGUI). Payload-class satellites include a variety of spacecraft equipped with specific instruments for various scientific and technological missions. These include communications satellites like Starlink; space stations such as the ISS; scientific satellites like the Hubble; Earth observation satellites from companies like Planet Labs, Umbra, and HawkEye 360; GPS; miniature CubeSats for education and research; and military/defense satellites.

Not visible in the next 10 days
Identifier
40732, 2015-034A
Orbit
GEO
Country
Flag of UnknownUnknown / EUME
Related business
Manufacturer
Thales Alenia
Mission
Operational Civil Weather
Bus & Motor
MSG, S400 X2
Mass
2,043 kg wet, 1,000 kg dry
Launch date (UTC)
2015-07-15 (10 years ago)
Launch vehicle
ARIANE 5ECA
Launch site
French Guiana (FRGUI)
Object type
Payload
Rocket body
Debris
Shape & HBR
Cyl, 1.6 m
Radar Cross Section
9.802 m², Large (>1 m²)

Expand to show TLE details & history
Last TLE update: 8 hours ago

TLE from 8 hours ago
0 METEOSAT 11 (MSG 4)
1 40732U 15034A   25259.58555203  .00000044  00000-0  00000-0 0  9993
2 40732   2.5126  72.2198 0000541 123.4454  20.1435  1.00273769  4471
Epoch: 2025-09-16T14:03Z
TLE epoch observation values (Epoch: 2025-09-16T14:03:11.695Z)
Latitude
1.50941°
Longitude
9.26313°
Altitude
35,783.205 km
Speed
3.075 km/s
True Right ascension
14h 23m 20s
True Declination
1° 30' 28"
Sunlit
Object was in daylight at epoch
Visualization orbit readout
Latitude
Unknown
Longitude
Unknown
Altitude
Unknown
Speed
Unknown
Apparent Right ascension
Unknown
Apparent Declination
Unknown
Sunlit
N/A
Visualization observer readout
Local Sidereal Time
14:42:42
Azimuth
Unknown
Elevation
Unknown
Doppler factor
Unknown
Orbital elements
Apogee altitude
35,789.387 km
Perigee altitude
35,784.825 km
Semi-major axis
42,165.243 km
Eccentricity
0.00005
Inclination
2.5126°
RAAN
72.2198°
Arg. of periapsis
123.4454°
True anomaly
20.14564°
Mean anomaly
20.1435°
Eccentric anomaly
20.14457°
Mean motion
0.25068 °/min
Orbital period
1,436.12 mins
BSTAR
0
Loading maneuver chart data...
Computing Atmospheric mass density...
Loading historical data...
Loading historical data...
Loading historical data...
Loading historical data...
Loading historical data...
Loading historical data...
Loading historical data...

Documentation

Showing up to 5 results
|